Weather History for Le Puy, France

Change the Weather History Date:

Tuesday, January 15, 2013

  Actual Average Record
Temperature  
Mean Temperature 23 °F -  
Max Temperature 32 °F - - ()
Min Temperature 14 °F - - ()
Degree Days  
Heating Degree Days 42    
Moisture  
Dew Point 22 °F    
Average Humidity 82    
Maximum Humidity 100    
Minimum Humidity 56    
Precipitation  
Precipitation 0.01 in - - ()
Sea Level Pressure  
Sea Level Pressure 29.71 in    
Wind  
Wind Speed 4 mph ()    
Max Wind Speed 18 mph    
Max Gust Speed 28 mph    
Visibility 6.1 miles    
Events Snow    
T = Trace of Precipitation, MM = Missing Value Source: Averaged Metar Reports

Daily Weather History Graph

Daily Weather History Graph

Search for Another Location

Airport:

Trip Planner

Search our weather history database for the weather conditions in past years. The results will help you decide how hot, cold, wet, or windy it might be!

Date:

Astronomy

Jan. 15, 2013 Rise Set
Actual Time 8:19 AM CET 5:29 PM CET
Civil Twilight 7:47 AM CET 6:02 PM CET
Nautical Twilight 7:10 AM CET 6:38 PM CET
Astronomical Twilight 6:35 AM CET 7:13 PM CET
Moon 10:04 AM CET (1/15) 10:17 PM CET (1/15)
Length of Visible Light 10h 15m
Length of Day
9h 09m
Waxing Crescent, 17% of the Moon is Illuminated
Jan 15
Waxing Crescent
Jan 19
First Quarter
Jan 27
Full
Feb 3
Last Quarter
Feb 10
New

Hourly Weather History & Observations

Time (CET) Temp. Windchill Dew Point Humidity Pressure Visibility Wind Dir Wind Speed Gust Speed Precip Events Conditions
12:00 AM 23.0 °F 18.4 °F 21.2 °F 93% 29.83 in 6.2 mi WSW 3.5 mph - N/A   Overcast
12:30 AM 19.4 °F 14.3 °F 15.8 °F 86% 29.83 in 6.2 mi Variable 3.5 mph - N/A   Mostly Cloudy
1:00 AM 18 °F - 15 °F 82%  in 9 mi North 1.2 mph - -   Clear
1:00 AM 17.6 °F - 15.8 °F 93% 29.80 in 6.2 mi Calm Calm - N/A   Unknown
1:30 AM 17.6 °F - 15.8 °F 93% 29.80 in 6.2 mi Variable 2.3 mph - N/A   Unknown
2:00 AM 17.6 °F - 15.8 °F 93% 29.77 in 6.2 mi Calm Calm - N/A   Unknown
2:30 AM 19.4 °F - 17.6 °F 93% 29.77 in 6.2 mi Calm Calm - N/A   Unknown
3:00 AM 19.4 °F - 19.4 °F 100% 29.74 in 0.7 mi Variable 1.2 mph - N/A Snow Snow
3:30 AM 21.2 °F - 19.4 °F 93% 29.71 in 1.2 mi ESE 2.3 mph - N/A Snow Light Snow
4:00 AM 21.2 °F - 19.4 °F 93% 29.71 in 6.2 mi Variable 2.3 mph - N/A   Scattered Clouds
4:30 AM 21.2 °F - 21.2 °F 100% 29.68 in 6.2 mi Calm Calm - N/A   Mostly Cloudy
5:00 AM 21.2 °F - 21.2 °F 100% 29.65 in 6.2 mi Variable 1.2 mph - N/A   Mostly Cloudy
5:30 AM 21.2 °F - 21.2 °F 100% 29.62 in 6.2 mi Variable 1.2 mph - N/A   Mostly Cloudy
6:00 AM 21.2 °F - 21.2 °F 100% 29.62 in 6.2 mi Variable 1.2 mph - N/A   Overcast
6:30 AM 23.0 °F - 21.2 °F 93% 29.62 in 6.2 mi Calm Calm - N/A   Mostly Cloudy
7:00 AM 30 °F - 27 °F 83%  in 12 mi West 8.1 mph - -   Clear
7:00 AM 30.2 °F 22.6 °F 26.6 °F 86% 29.62 in 6.2 mi West 8.1 mph - N/A   Mostly Cloudy
7:30 AM 28.4 °F - 24.8 °F 86% 29.62 in 6.2 mi Calm Calm - N/A   Mostly Cloudy
8:00 AM 28.4 °F - 24.8 °F 86% 29.62 in 6.2 mi Variable 2.3 mph - N/A   Mostly Cloudy
8:30 AM 30.2 °F - 23.0 °F 75% 29.62 in 6.2 mi Calm Calm - N/A   Overcast
9:00 AM 30.2 °F 25.4 °F 24.8 °F 80% 29.62 in 6.2 mi West 4.6 mph - N/A Snow Light Snow
9:30 AM 30.2 °F 25.4 °F 26.6 °F 86% 29.65 in 6.2 mi NW 4.6 mph - N/A Snow Light Snow
10:00 AM 30.2 °F - 28.4 °F 93% 29.65 in 3.1 mi Calm Calm - N/A Snow Light Snow
10:30 AM 30.2 °F 21.9 °F 26.6 °F 86% 29.68 in 1.5 mi NW 9.2 mph - N/A Snow Light Snow
11:00 AM 30.2 °F 21.9 °F 23.0 °F 75% 29.68 in 6.2 mi NNW 9.2 mph - N/A   Mostly Cloudy
11:30 AM 30.2 °F 21.9 °F 23.0 °F 75% 29.68 in 6.2 mi NNW 9.2 mph - N/A   Mostly Cloudy
12:00 PM 30.2 °F 23.4 °F 23.0 °F 75% 29.68 in 6.2 mi North 6.9 mph - N/A   Mostly Cloudy
12:30 PM 32.0 °F 23.6 °F 23.0 °F 69% 29.71 in 6.2 mi NW 10.4 mph - N/A   Mostly Cloudy
1:00 PM 32 °F - 22 °F 56%  in 12 mi NW 11.5 mph - -   Clear
1:00 PM 32.0 °F 23.0 °F 23.0 °F 69% 29.68 in 6.2 mi NW 11.5 mph - N/A   Mostly Cloudy
1:30 PM 32.0 °F 24.2 °F 21.2 °F 64% 29.68 in 6.2 mi WNW 9.2 mph - N/A   Scattered Clouds
2:00 PM 32.0 °F 26.4 °F 23.0 °F 69% 29.68 in 6.2 mi WNW 5.8 mph - N/A   Mostly Cloudy
2:30 PM 32.0 °F 27.5 °F 23.0 °F 69% 29.68 in 6.2 mi WNW 4.6 mph - N/A   Mostly Cloudy
3:00 PM 30.2 °F 25.4 °F 24.8 °F 80% 29.68 in 3.7 mi WNW 4.6 mph - N/A Snow Light Snow
3:30 PM 30.2 °F 20.8 °F 24.8 °F 80% 29.68 in 3.7 mi WNW 11.5 mph - N/A Snow Light Snow
4:00 PM 28.4 °F 15.8 °F 21.2 °F 74% 29.71 in 6.2 mi NW 18.4 mph - N/A   Partly Cloudy
4:30 PM 28.4 °F 17.0 °F 21.2 °F 74% 29.71 in 6.2 mi NW 15.0 mph 27.6 mph N/A   Partly Cloudy
5:00 PM 28.4 °F 17.0 °F 21.2 °F 74% 29.74 in 6.2 mi NW 15.0 mph - N/A Snow Light Snow
5:30 PM 28.4 °F 18.5 °F 21.2 °F 74% 29.74 in 6.2 mi WNW 11.5 mph - N/A Snow Light Snow
6:00 PM 28.4 °F 20.4 °F 23.0 °F 80% 29.74 in 6.2 mi WNW 8.1 mph - N/A Snow Light Snow
6:30 PM 28.4 °F 21.2 °F 21.2 °F 74% 29.74 in 6.2 mi West 6.9 mph - N/A Snow Light Snow
7:00 PM 28 °F - 22 °F 71%  in 11 mi WNW 9.2 mph - - Snow Light Snow
7:00 PM 28.4 °F 19.7 °F 23.0 °F 80% 29.74 in 6.2 mi WNW 9.2 mph - N/A Snow Light Snow
7:30 PM 28.4 °F 20.4 °F 23.0 °F 80% 29.74 in 6.2 mi WNW 8.1 mph - N/A Snow Light Snow
8:00 PM 28.4 °F 22.2 °F 23.0 °F 80% 29.77 in 6.2 mi WNW 5.8 mph - N/A   Mostly Cloudy
8:30 PM 28.4 °F 20.4 °F 23.0 °F 80% 29.77 in 6.2 mi NW 8.1 mph - N/A Snow Light Snow
9:30 PM 26.6 °F 16.2 °F 21.2 °F 80% 29.77 in 6.2 mi WNW 11.5 mph - N/A   Scattered Clouds
10:00 PM 26.6 °F 16.2 °F 19.4 °F 74% 29.77 in 6.2 mi NW 11.5 mph - N/A   Partly Cloudy
10:30 PM 26.6 °F 15.7 °F 21.2 °F 80% 29.77 in 6.2 mi WNW 12.7 mph - N/A   Partly Cloudy
11:00 PM 26.6 °F 16.2 °F 21.2 °F 80% 29.77 in 6.2 mi WNW 11.5 mph - N/A   Mostly Cloudy